This is the latest recevied weather packets stored in our database for station/object KC1IUC-15. If no packets are shown the sender has not sent any weather packets the latest 10 day(s).
| Time | Temp. | Humidity | Pressure | Rain* | Wind** | Luminosity | Snow |
|---|---|---|---|---|---|---|---|
| 1777498803 | 15.56° C | 54% | 1011.3 hPa | 0 mm | - | 109 W/m² | - |
| 1777498503 | 15.56° C | 53% | 1011 hPa | 0 mm | - | 114 W/m² | - |
| 1777498203 | 16.11° C | 52% | 1011 hPa | 0 mm | - | 127 W/m² | - |
| 1777497903 | 16.11° C | 52% | 1010.6 hPa | 0 mm | - | 141 W/m² | - |
| 1777497603 | 16.11° C | 52% | 1011 hPa | 0 mm | - | 145 W/m² | - |
| 1777497303 | 16.11° C | 51% | 1011 hPa | 0 mm | - | 143 W/m² | - |
| 1777497003 | 16.11° C | 51% | 1010.6 hPa | 0 mm | - | 147 W/m² | - |
| 1777496703 | 16.11° C | 51% | 1011 hPa | 0 mm | - | 144 W/m² | - |
| 1777496403 | 16.11° C | 51% | 1011.3 hPa | 0 mm | - | 142 W/m² | - |
| 1777496103 | 16.67° C | 51% | 1011.3 hPa | 0 mm | - | 156 W/m² | - |
| 1777495803 | 16.67° C | 50% | 1011.3 hPa | 0 mm | - | 156 W/m² | - |
| 1777495503 | 16.67° C | 52% | 1011.6 hPa | 0 mm | - | 163 W/m² | - |
| 1777495203 | 16.67° C | 51% | 1011.3 hPa | 0 mm | - | 188 W/m² | - |
| 1777494903 | 16.67° C | 53% | 1011.6 hPa | 0 mm | - | 183 W/m² | - |
| 1777494603 | 16.67° C | 51% | 1011.3 hPa | 0 mm | - | 193 W/m² | - |
| 1777494303 | 16.67° C | 50% | 1011.6 hPa | 0 mm | - | 194 W/m² | - |
| 1777494003 | 17.22° C | 49% | 1011.6 hPa | 0 mm | - | 204 W/m² | - |
| 1777493703 | 17.78° C | 47% | 1012 hPa | 0 mm | - | 196 W/m² | - |
| 1777493403 | 17.78° C | 46% | 1012 hPa | 0 mm | - | 247 W/m² | - |
| 1777493103 | 18.89° C | 44% | 1012 hPa | 0 mm | - | 220 W/m² | - |
| 1777492803 | 18.89° C | 45% | 1011.6 hPa | 0 mm | - | 453 W/m² | - |
| 1777492503 | 18.33° C | 45% | 1011.6 hPa | 0 mm | - | 500 W/m² | - |
| 1777492203 | 18.33° C | 45% | 1012 hPa | 0 mm | - | 534 W/m² | - |
| 1777491903 | 18.33° C | 45% | 1012 hPa | 0 mm | - | 441 W/m² | - |
| 1777491603 | 18.33° C | 46% | 1012 hPa | 0 mm | - | 312 W/m² | - |
* Rain latest hour (hover to see other rain measurements)
** Current wind speed in m/s (hover to see current wind gust speed)